Location: Newark
(45.2705°N, 0.1715°E)
Time: 21:17:08
(UTC+00:00)

ISS - Visible Passes

Search period start: 17 January 2020 00:00
Search period end: 27 January 2020 00:00
Orbit: 415 x 421 km, 51.6° (Epoch: 18 January)

Date Brightness Start Highest point End Pass type
(mag) Time Alt. Az. Time Alt. Az. Time Alt. Az.
19 Jan -1.2 18:12:16 10° SE 18:12:28 10° SE 18:12:28 10° SE visible
20 Jan -2.0 18:57:59 10° SW 18:59:48 26° SSW 18:59:48 26° SSW visible
21 Jan -2.5 18:10:26 10° SSW 18:13:18 26° SE 18:14:05 24° ESE visible
21 Jan -0.4 19:46:36 10° WSW 19:47:02 13° WSW 19:47:02 13° WSW visible
22 Jan -1.7 17:23:15 10° S 17:25:28 17° SE 17:27:42 10° E visible
22 Jan -3.1 18:58:30 10° WSW 19:01:13 55° WSW 19:01:13 55° WSW visible
23 Jan -3.7 18:10:32 10° SW 18:13:52 66° SSE 18:15:21 30° ENE visible
23 Jan -0.5 19:47:44 10° W 19:48:17 14° WNW 19:48:17 14° WNW visible
24 Jan -3.0 17:22:44 10° SSW 17:25:55 41° SE 17:29:07 10° ENE visible
24 Jan -2.7 18:59:29 10° W 19:02:20 40° NW 19:02:20 40° NW visible
25 Jan -3.4 18:11:16 10° WSW 18:14:36 56° NNW 18:16:20 25° NE visible
25 Jan -0.5 19:48:53 10° WNW 19:49:16 12° WNW 19:49:16 12° WNW visible
26 Jan -3.7 17:23:08 10° WSW 17:26:30 83° NNW 17:29:53 10° ENE visible
26 Jan -2.2 19:00:37 10° WNW 19:03:14 28° NNW 19:03:14 28° NNW visible
